Temperature
20 20 20 20 19 19 19 19 18 18 18 18 18 18 17 17 17 17 17 17 16 16 16 16 16 16 16 16 16 16 16 16 16 16 15 15 15 15 15 15 15 15 15
20 20 20 19 19 19 19 19 18 18 18 18 18 18 17 17 17 17 17 17 16 16 16 16 16 16 16 16 16 16 16 15 15 15 15 15 15 15 15 15 15 15 15
20 20 19 19 19 19 19 18 18 18 18 18 17 17 17 17 17 17 17 16 16 16 16 16 16 16 16 16 16 15 15 15 15 15 15 15 14 14 14 14 14 14 14
20 20 19 19 19 19 18 18 18 18 18 17 17 17 17 17 17 17 17 16 16 16 16 16 16 16 16 16 15 15 15 15 15 15 14 14 14 14 14 14 14 14 14
19 19 19 19 18 18 18 18 18 18 17 17 17 17 17 17 17 17 16 16 16 16 16 16 16 15 15 15 15 15 15 15 14 14 14 14 13 13 13 13 13 13 13
19 19 19 19 18 18 18 18 18 18 17 17 17 17 17 16 16 16 16 16 16 16 16 15 15 15 15 15 15 15 14 14 14 14 14 13 13 13 13 13 13 13 13
19 19 19 18 18 18 18 17 17 17 17 17 17 16 16 16 16 16 16 16 16 15 15 15 15 15 15 15 14 14 14 14 14 13 13 13 13 13 13 13 12 12 12
18 18 18 18 18 18 17 17 17 17 17 17 16 16 16 16 16 16 16 15 15 15 15 15 15 15 14 14 14 14 14 14 13 13 13 13 13 12 12 12 12 12 12
18 18 18 18 18 17 17 17 17 17 17 16 16 16 16 16 16 15 15 15 15 15 15 15 14 14 14 14 14 14 13 13 13 13 13 13 12 12 12 12 12 12 12
18 18 17 17 17 17 17 17 16 16 16 16 16 16 16 15 15 15 15 15 15 14 14 14 14 14 14 13 13 13 13 13 13 13 12 12 12 12 12 12 12 12 11
17 17 17 17 17 16 16 16 16 16 16 16 16 15 15 15 15 15 15 14 14 14 14 14 14 13 13 13 13 13 13 13 12 12 12 12 12 12 12 12 11 11 11
17 17 16 16 16 16 16 15 15 15 15 15 15 15 15 15 15 14 14 14 14 14 14 14 13 13 13 13 13 12 12 12 12 12 12 12 11 11 11 11 11 11 11
16 16 16 16 16 15 15 15 15 15 15 15 15 15 15 14 14 14 14 13 13 13 13 13 13 13 13 13 12 12 12 11 11 11 11 11 11 11 11 11 11 11 11
16 16 16 15 15 15 15 15 15 14 14 14 14 14 14 14 14 14 14 13 13 13 13 13 12 12 12 12 12 11 11 11 11 11 11 11 10 10 10 10 10 10 10
15 15 15 15 15 14 14 14 14 14 14 14 14 14 14 14 14 13 13 13 13 13 12 12 12 12 12 11 11 11 11 11 11 10 10 10 10 10 10 10 10 10 10
15 15 14 14 14 14 14 14 14 14 14 14 13 13 13 13 13 13 13 13 13 12 12 12 12 12 11 11 11 11 11 11 10 10 10 10 10 10 9 9 9 9 9
15 14 14 14 14 14 14 13 13 13 13 13 13 13 13 13 13 13 13 13 12 12 12 12 11 11 11 11 11 11 10 10 10 10 9 9 9 9 9 9 9 9 9
14 14 14 13 13 13 13 13 13 13 13 13 13 12 12 12 12 12 12 12 12 11 11 11 11 11 11 10 10 10 10 10 9 9 9 9 9 9 9 9 9 9 9
14 13 13 13 13 13 13 12 12 12 12 12 12 12 12 12 12 12 12 12 11 11 11 11 11 11 10 10 10 10 10 9 9 9 9 9 9 9 9 8 8 8 8
13 13 13 13 12 12 12 12 12 12 12 12 12 12 11 11 11 11 11 11 11 11 11 11 10 10 10 10 10 10 9 9 9 9 9 8 8 8 8 8 8 8 8
13 13 12 12 12 12 12 12 12 11 11 11 11 11 11 11 11 11 10 10 10 10 10 10 10 10 10 10 9 9 9 9 8 8 8 8 8 8 8 8 8 8 8
12 12 12 12 12 12 11 11 11 11 11 11 11 11 11 10 10 10 10 10 10 10 10 10 10 9 9 9 9 9 9 8 8 8 8 8 8 8 8 8 8 8 8
12 12 12 12 11 11 11 11 11 11 11 11 11 10 10 10 10 10 10 10 10 10 10 9 9 9 9 9 9 8 8 8 8 8 8 8 8 8 7 7 7 7 7
12 11 11 11 11 11 11 11 11 10 10 10 10 10 10 10 10 10 9 9 9 9 9 9 9 9 9 9 8 8 8 8 8 7 7 7 7 7 7 7 7 7 7
11 11 11 11 11 11 10 10 10 10 10 10 10 10 10 10 9 9 9 9 9 9 9 9 8 8 8 8 8 8 8 7 7 7 7 7 7 7 7 7 7 7 7
11 11 11 10 10 10 10 10 10 10 10 10 10 10 9 9 9 9 9 9 9 9 8 8 8 8 8 8 8 8 8 7 7 7 7 7 7 7 7 7 7 6 6
Wind_Speed
7 7 6 6 6 6 6 6 5 5 5 4 4 4 4 3 3 3 3 2 2 2 2 2 2 2 2 2 2 2 2 2 3 2 1 1 1 2 3 2 2 2 2
5 5 6 5 5 5 5 5 5 4 4 4 4 4 4 4 4 4 4 3 3 3 3 2 3 2 2 2 2 2 2 3 3 2 1 1 1 1 2 2 2 2 2
4 5 5 5 5 4 4 4 4 4 4 4 4 4 4 4 4 4 4 4 4 4 4 4 4 3 2 2 2 2 2 2 2 3 1 1 1 1 1 2 3 2 3
3 4 4 4 5 5 4 3 4 4 4 4 4 4 4 4 4 4 4 4 4 4 4 4 4 4 4 3 2 2 2 2 2 2 1 1 1 1 1 1 2 2 3
3 3 4 4 4 4 4 5 5 4 4 3 3 3 3 3 4 4 4 4 3 2 2 2 3 3 3 3 2 2 3 2 2 2 2 1 1 1 1 1 1 2 2
2 2 2 2 3 4 5 5 5 4 4 3 3 3 3 4 4 5 4 4 3 3 2 2 1 1 2 2 3 3 4 4 4 3 2 2 2 2 1 1 0 1 2
2 1 2 2 3 3 4 4 5 5 4 4 4 3 4 5 5 5 5 4 3 3 3 2 2 1 2 2 2 2 2 3 4 4 4 4 3 3 2 2 1 1 2
1 1 1 1 2 2 2 4 4 3 4 4 4 4 4 5 4 5 5 4 3 3 3 3 3 2 2 3 2 2 1 1 2 3 4 4 3 3 3 3 2 1 2
1 1 2 2 2 3 3 3 3 3 4 4 4 4 4 4 4 5 5 3 3 3 3 3 3 3 3 4 4 3 1 1 0 2 2 3 3 3 3 2 2 1 1
3 3 2 2 3 4 4 3 2 3 4 4 3 4 4 4 5 6 6 3 3 2 2 2 3 4 4 5 4 4 3 2 1 1 1 0 1 2 3 3 3 2 1
2 2 2 2 3 3 3 3 3 3 3 3 3 3 3 4 5 6 6 5 5 4 3 3 3 4 5 5 5 4 5 4 2 2 1 1 0 0 1 1 2 3 2
1 1 2 2 2 2 2 2 2 3 3 3 3 3 3 3 4 5 7 7 6 5 5 4 4 5 5 4 3 3 3 3 2 2 1 1 0 1 1 1 1 2 3
1 1 1 1 1 1 2 2 2 3 3 3 3 4 3 2 3 4 6 8 7 5 4 5 5 5 4 3 3 3 4 3 2 2 2 2 2 2 1 1 0 0 1
2 2 1 1 1 1 1 1 2 2 3 3 4 4 3 3 3 3 3 4 5 4 3 2 3 3 2 2 2 2 2 3 3 3 2 1 1 0 0 0 0 0 0
2 2 1 1 2 1 1 1 2 3 3 4 4 4 4 4 5 6 5 4 4 4 3 2 1 2 2 2 1 1 2 2 2 2 2 1 1 1 1 1 0 0 1
2 1 1 1 1 1 1 1 2 1 1 3 4 4 4 5 5 5 6 6 6 7 4 3 3 3 4 4 3 3 3 3 3 3 3 2 2 2 2 1 1 1 2
3 2 1 1 1 2 1 1 1 2 3 2 2 2 3 3 3 4 5 5 5 7 4 4 4 4 4 4 4 4 4 3 3 3 3 3 3 2 2 2 2 2 2
2 2 2 2 2 2 2 2 2 1 1 2 2 3 1 1 2 3 5 5 3 3 3 4 4 4 4 4 4 4 4 3 3 3 3 3 3 3 3 3 3 3 3
2 2 2 1 1 1 1 1 1 2 1 1 1 2 2 1 2 2 5 3 3 3 3 3 4 4 4 4 4 4 4 4 3 3 3 3 3 3 4 4 3 4 3
2 2 2 1 1 1 1 1 1 1 1 1 1 1 0 1 1 1 2 2 3 3 3 3 3 3 3 3 3 3 3 3 3 3 3 3 3 4 4 4 4 4 4
2 2 2 1 2 2 2 2 2 2 2 2 2 2 3 2 2 3 3 3 3 3 4 3 3 3 3 2 2 3 3 3 3 3 3 3 3 4 4 4 4 4 4
2 2 2 2 2 2 2 2 2 2 2 2 2 1 2 2 2 2 2 3 3 3 3 3 3 3 3 3 3 3 3 3 3 3 3 3 3 4 4 4 4 3 3
2 2 2 2 2 2 2 1 2 2 2 2 2 1 1 2 2 2 2 3 3 3 3 3 3 3 3 3 4 4 4 4 4 4 3 3 3 4 4 4 4 4 4
2 2 2 2 2 2 2 1 2 2 2 2 2 2 2 2 2 2 2 2 2 2 3 3 3 4 4 3 3 4 4 4 4 4 4 4 4 4 4 4 4 5 5
2 2 2 2 2 2 2 2 1 1 2 2 2 2 2 2 2 2 2 2 2 3 3 3 3 4 4 4 3 3 4 4 4 4 4 4 5 4 4 4 4 4 4
1 2 1 1 2 2 2 2 2 2 2 2 2 2 2 2 2 2 2 2 2 2 2 2 3 3 3 3 4 4 4 4 5 5 4 4 4 4 4 4 5 4 5
Wind_Direction
205 205 204 205 205 200 198 204 203 202 198 199 197 198 200 201 201 198 214 211 209 226 228 214 227 208 190 197 189 189 191 184 214 260 252 295 323 343 352 353 348 338 322
203 198 202 204 201 204 211 212 201 199 200 202 200 198 202 207 206 205 216 217 214 221 229 220 230 218 194 200 197 198 194 189 195 224 238 271 281 323 352 351 356 5 339
192 193 199 203 200 204 211 208 199 200 206 203 201 204 209 212 213 214 213 216 220 223 223 215 220 201 206 208 203 206 203 192 186 187 214 222 257 334 10 359 3 3 355
188 190 199 208 207 205 196 195 201 205 211 212 212 211 214 215 214 215 212 219 224 226 224 218 213 207 207 206 205 200 184 167 163 169 195 215 255 307 357 347 349 354 347
172 186 204 206 205 201 197 196 192 195 212 211 204 211 216 214 220 213 208 211 207 213 222 223 217 201 193 190 189 184 169 169 171 176 193 190 228 253 278 282 318 336 333
153 189 191 181 191 202 205 197 188 186 192 191 197 208 221 231 228 207 197 199 198 199 210 221 209 178 166 151 151 165 171 178 184 184 199 214 233 229 226 219 210 327 313
156 165 165 170 185 210 210 195 194 189 184 190 199 205 228 240 223 206 194 189 191 197 196 194 198 180 158 155 133 130 151 170 177 183 199 221 223 217 204 223 231 241 255
159 171 175 168 183 194 189 194 196 189 190 202 212 218 230 244 223 202 188 186 192 198 197 195 189 190 186 165 155 139 145 196 197 196 209 225 223 215 206 211 217 246 272
193 225 233 208 189 189 198 205 203 196 205 213 212 216 226 245 223 197 180 183 193 203 200 195 192 198 194 167 162 163 162 294 150 155 181 206 212 203 175 159 166 184 265
225 233 230 218 203 207 215 214 208 203 213 217 224 225 224 233 223 199 179 177 188 206 215 216 203 196 194 181 178 177 195 233 214 128 118 123 174 168 163 184 189 188 220
249 245 240 228 220 221 226 217 197 197 202 207 217 237 229 223 215 201 185 187 192 197 208 221 221 197 197 194 185 195 211 209 195 176 172 161 143 167 176 187 198 196 205
202 233 247 243 234 218 203 213 197 188 199 214 218 239 240 226 209 201 196 199 192 194 208 216 216 201 199 201 196 196 183 171 173 161 159 176 239 283 291 271 224 227 230
167 235 264 270 275 214 197 204 203 195 205 218 217 230 243 237 219 205 202 201 197 200 211 209 203 194 191 196 197 171 161 169 172 175 192 225 241 251 289 328 342 319 306
192 232 243 223 264 277 239 223 218 220 220 226 229 232 234 229 223 215 209 204 201 206 213 204 184 170 170 180 175 172 178 184 186 196 211 222 217 218 275 321 272 317 337
201 220 233 226 215 235 252 251 237 232 223 222 227 223 214 227 233 207 193 197 196 191 166 161 170 171 183 196 202 196 187 177 185 198 194 191 194 214 272 293 228 186 227
197 226 225 231 233 217 218 309 349 294 270 235 232 224 228 225 214 202 208 204 186 165 156 182 192 202 209 210 210 214 207 205 204 200 200 198 208 224 248 269 254 226 243
196 218 231 231 230 226 220 213 287 357 31 31 347 274 218 213 208 203 191 177 174 166 179 199 206 211 220 221 217 217 219 217 205 206 211 214 217 223 230 244 244 244 250
197 211 226 238 235 231 225 219 208 206 293 335 352 330 320 188 185 178 152 136 166 188 210 217 222 219 219 223 224 222 221 214 211 218 224 222 221 220 225 229 232 240 246
203 219 225 235 234 233 230 219 210 205 219 268 328 342 347 16 74 121 146 165 190 211 222 228 229 228 226 221 219 217 216 214 215 216 222 223 224 224 229 233 231 233 242
215 214 196 207 223 220 213 213 219 219 222 233 243 267 352 71 110 166 186 202 202 218 228 233 235 235 229 222 213 208 209 213 215 218 221 222 223 225 232 236 237 239 243
201 202 193 201 226 228 224 225 229 236 243 244 250 241 193 197 216 210 209 222 224 230 236 233 229 227 219 204 201 204 210 215 216 216 219 223 226 231 239 240 241 243 246
193 200 206 217 236 240 238 233 229 233 240 249 270 275 207 202 223 224 226 232 234 234 230 222 222 222 211 203 207 207 211 221 231 230 228 228 229 238 243 242 243 244 243
194 200 211 218 222 234 242 246 230 228 237 246 255 260 228 220 235 243 243 246 241 238 230 219 222 225 222 213 207 203 209 218 224 225 227 233 236 237 238 240 240 243 243
197 202 214 219 211 213 218 232 237 230 229 236 238 237 243 245 244 246 245 247 244 243 233 222 224 226 221 217 215 214 220 227 228 224 215 220 232 238 237 238 238 237 240
195 200 208 212 210 212 212 210 224 237 242 240 242 244 249 256 259 261 260 255 253 252 246 233 227 227 225 225 223 225 225 224 228 227 216 220 229 231 231 237 242 245 241
193 195 195 191 194 201 208 217 228 241 255 254 246 245 245 249 257 265 266 262 262 255 248 235 229 228 230 232 237 237 227 225 227 225 216 215 223 229 230 231 237 238 242
Height
1508 1510 1511 1513 1515 1517 1518 1519 1521 1522 1522 1523 1524 1524 1525 1526 1526 1526 1526 1526 1526 1526 1526 1526 1526 1526 1526 1526 1525 1525 1525 1526 1525 1525 1525 1525 1525 1525 1525 1524 1524 1523 1523
1505 1506 1508 1510 1512 1513 1515 1516 1518 1519 1519 1520 1521 1522 1522 1522 1523 1523 1523 1523 1523 1523 1523 1523 1523 1523 1523 1523 1523 1523 1523 1523 1523 1522 1522 1522 1522 1522 1521 1521 1521 1520 1520
1502 1504 1505 1507 1509 1510 1512 1513 1515 1516 1516 1517 1518 1518 1518 1518 1519 1519 1520 1520 1520 1520 1520 1520 1520 1521 1520 1520 1520 1520 1520 1520 1520 1519 1519 1519 1519 1519 1518 1518 1518 1517 1517
1500 1501 1503 1504 1506 1507 1508 1510 1511 1513 1513 1514 1515 1515 1515 1515 1515 1515 1516 1516 1517 1517 1517 1517 1517 1517 1517 1517 1517 1517 1517 1516 1516 1516 1516 1516 1516 1516 1516 1515 1514 1514 1514
1497 1498 1499 1501 1503 1504 1505 1506 1507 1509 1510 1510 1511 1512 1512 1512 1512 1512 1512 1513 1513 1513 1514 1514 1514 1514 1514 1514 1514 1514 1514 1513 1513 1513 1513 1513 1513 1513 1513 1512 1512 1511 1511
1494 1495 1496 1498 1499 1500 1501 1502 1503 1504 1505 1507 1507 1508 1508 1509 1509 1509 1509 1510 1510 1510 1510 1511 1511 1511 1511 1511 1511 1511 1511 1511 1511 1511 1510 1510 1510 1510 1510 1510 1509 1509 1508
1492 1493 1494 1494 1495 1496 1497 1498 1499 1500 1501 1502 1503 1504 1505 1506 1506 1506 1506 1507 1507 1507 1508 1508 1508 1508 1508 1508 1508 1508 1508 1507 1508 1508 1508 1507 1507 1507 1507 1507 1506 1506 1505
1490 1491 1491 1491 1492 1493 1493 1494 1495 1497 1498 1499 1500 1500 1501 1502 1503 1503 1503 1503 1504 1504 1504 1505 1505 1505 1505 1505 1505 1505 1505 1504 1505 1505 1505 1505 1505 1504 1504 1504 1504 1503 1503
1488 1488 1489 1489 1489 1490 1490 1491 1492 1493 1494 1495 1496 1497 1498 1499 1500 1500 1500 1500 1500 1501 1501 1501 1501 1501 1502 1502 1502 1501 1501 1501 1501 1502 1502 1502 1502 1501 1501 1501 1501 1500 1500
1486 1486 1487 1487 1487 1487 1488 1489 1489 1490 1491 1492 1493 1493 1494 1495 1496 1496 1496 1497 1497 1497 1497 1497 1497 1498 1498 1498 1498 1498 1498 1498 1498 1498 1499 1499 1499 1499 1499 1499 1498 1498 1497
1484 1484 1484 1484 1484 1485 1486 1486 1486 1487 1488 1488 1489 1490 1490 1490 1491 1492 1492 1493 1493 1493 1493 1494 1494 1494 1495 1495 1495 1495 1495 1495 1495 1496 1496 1496 1496 1496 1496 1496 1496 1496 1495
1482 1482 1482 1482 1482 1482 1483 1483 1483 1484 1484 1485 1485 1485 1485 1486 1486 1487 1488 1489 1489 1489 1490 1491 1491 1491 1491 1492 1491 1491 1492 1492 1492 1492 1493 1493 1493 1493 1493 1493 1493 1493 1493
1480 1480 1480 1480 1480 1480 1480 1480 1481 1481 1481 1481 1481 1480 1481 1481 1482 1483 1484 1484 1485 1486 1486 1487 1488 1488 1488 1488 1488 1488 1488 1489 1489 1489 1489 1490 1490 1491 1491 1491 1491 1491 1490
1477 1477 1477 1477 1477 1477 1477 1478 1478 1477 1477 1477 1477 1477 1477 1477 1478 1478 1479 1480 1481 1482 1483 1484 1484 1484 1484 1484 1485 1485 1485 1485 1485 1486 1486 1487 1488 1488 1488 1488 1488 1488 1487
1475 1475 1475 1475 1474 1474 1474 1474 1474 1474 1474 1474 1474 1474 1473 1473 1474 1475 1475 1476 1477 1478 1479 1480 1480 1480 1480 1480 1481 1481 1481 1482 1482 1483 1483 1484 1484 1485 1485 1485 1485 1485 1484
1472 1472 1472 1472 1472 1471 1471 1471 1471 1471 1471 1470 1470 1470 1470 1471 1470 1470 1471 1472 1473 1474 1475 1475 1475 1476 1476 1476 1477 1477 1478 1478 1478 1479 1480 1480 1481 1481 1481 1482 1482 1482 1482
1469 1469 1469 1469 1469 1468 1468 1468 1468 1468 1468 1467 1467 1467 1467 1467 1467 1467 1467 1468 1469 1470 1470 1471 1471 1472 1473 1473 1473 1473 1474 1474 1475 1475 1476 1477 1477 1477 1478 1478 1478 1479 1479
1467 1466 1466 1466 1466 1466 1465 1465 1465 1465 1465 1464 1464 1465 1464 1464 1464 1464 1464 1464 1465 1466 1466 1467 1467 1468 1468 1469 1470 1470 1471 1471 1471 1472 1473 1473 1474 1474 1475 1475 1475 1475 1475
1464 1464 1464 1463 1463 1463 1463 1463 1462 1462 1462 1461 1461 1461 1462 1461 1461 1461 1462 1461 1462 1463 1463 1464 1464 1465 1465 1465 1466 1466 1467 1467 1468 1468 1469 1470 1471 1471 1472 1472 1472 1472 1472
1461 1461 1461 1461 1460 1460 1460 1460 1459 1459 1459 1459 1459 1459 1459 1459 1458 1458 1459 1459 1459 1459 1460 1460 1461 1461 1461 1462 1462 1463 1463 1463 1464 1465 1466 1466 1467 1468 1468 1469 1469 1469 1469
1458 1458 1458 1458 1457 1457 1457 1456 1456 1456 1456 1456 1456 1456 1456 1456 1456 1456 1456 1456 1456 1456 1457 1457 1457 1457 1457 1458 1458 1459 1459 1460 1460 1461 1462 1462 1463 1464 1465 1465 1465 1465 1465
1455 1455 1455 1454 1454 1454 1454 1454 1454 1453 1453 1453 1453 1453 1453 1453 1453 1453 1453 1453 1453 1453 1454 1454 1454 1454 1454 1454 1454 1455 1455 1456 1457 1457 1458 1459 1459 1460 1461 1461 1461 1461 1462
1452 1452 1452 1452 1452 1452 1452 1452 1451 1451 1451 1451 1451 1451 1451 1450 1450 1450 1450 1451 1451 1451 1451 1451 1451 1451 1451 1451 1451 1451 1452 1452 1453 1454 1454 1455 1456 1456 1457 1457 1457 1457 1458
1449 1449 1449 1449 1449 1449 1449 1449 1449 1449 1449 1449 1449 1449 1449 1449 1449 1448 1448 1448 1448 1448 1448 1448 1448 1448 1448 1447 1448 1448 1448 1449 1450 1450 1451 1451 1451 1452 1452 1453 1453 1453 1454
1446 1446 1446 1446 1446 1446 1447 1447 1447 1447 1447 1447 1447 1447 1447 1447 1447 1446 1446 1446 1445 1445 1445 1444 1444 1444 1444 1444 1444 1444 1445 1445 1446 1446 1447 1447 1448 1448 1448 1449 1449 1449 1450
1443 1443 1443 1443 1444 1444 1444 1444 1445 1445 1445 1445 1445 1445 1445 1445 1444 1444 1443 1443 1442 1442 1441 1441 1441 1441 1441 1441 1441 1441 1442 1442 1442 1443 1443 1443 1444 1444 1445 1445 1445 1445 1446